SCP
0 0 -0 0 0 0 0 0 -0 0 -0 -0 0 0 0 0 0 0 0 0 0 0 0 0 0 0 0 0 0 0 0 0 0 0 0 0 0 0
0 -0 0 0 0 0 0 0 0 0 0 0 0 0 0 0 0 0 0 0 0 0 0 0 0 0 0 0 0 0 0 0 0 0 0 0 0 0
0 0 0 0 0 0 0 0 0 0 0 0 0 0 0 0 0 0 0 0 0 0 0 0 0 0 0 0 0 0 0 0 0 0 0 0 0 0
0 0 0 0 0 0 0 0 0 0 0 0 0 0 0 0 0 0 0 0 0 0 0 0 0 0 0 0 0 0 0 0 0 0 0 0 0 0
0 0 0 0 0 0 0 0 0 0 0 0 0 0 0 0 0 0 0 0 0 0 0 0 0 0 0 0 0 0 0 0 0 0 0 0 0 0
0 0 0 0 0 0 0 0 0 0 0 0 0 0 0 0 0 0 0 0 0 0 0 0 0 0 0 0 0 0 0 0 0 0 0 0 0 0
0 0 0 0 0 0 0 0 0 0 0 0 0 0 0 0 0 0 0 0 0 0 0 0 0 0 0 0 0 0 0 0 0 0 0 0 0 0
0 0 0 0 0 0 0 0 0 0 0 0 0 0 0 0 0 0 0 0 0 0 0 0 0 0 0 0 0 0 0 0 0 0 0 0 0 0
0 0 0 0 0 0 0 0 0 0 0 0 0 1 0 0 0 0 0 0 0 0 0 0 0 0 0 0 0 0 0 0 0 0 0 0 0 0
0 0 0 0 0 0 0 0 0 0 0 0 0 0 0 0 0 0 0 0 0 0 0 0 0 0 0 0 0 0 0 0 0 0 0 0 0 0
0 0 0 0 0 0 0 0 0 0 1 0 0 0 0 0 0 0 0 0 0 0 0 0 0 0 0 0 0 0 0 0 0 0 0 0 0 0
0 0 0 0 0 0 0 0 0 0 0 1 1 0 0 0 0 0 0 1 0 0 0 0 0 0 0 0 0 0 0 0 0 0 0 0 0 0
0 0 0 0 0 0 0 0 0 0 0 0 0 0 0 0 0 0 0 0 0 0 0 0 0 0 0 0 0 0 0 0 0 0 0 0 0 0
0 0 0 0 0 0 0 0 0 0 0 0 0 0 0 0 0 0 0 0 0 0 0 0 0 0 0 0 0 0 0 0 0 0 0 0 0 -0
0 0 0 0 0 0 0 0 0 0 0 0 0 0 0 0 0 0 0 0 0 0 0 0 0 0 0 0 0 0 0 0 0 0 0 -0 -0 -0
0 0 0 0 0 0 0 0 0 0 0 0 0 0 0 0 0 0 0 0 0 0 0 0 0 0 0 0 0 0 0 0 0 0 -0 -0 -0 -0
0 0 0 0 0 0 0 0 0 0 0 0 0 0 0 0 0 0 0 0 0 0 0 0 0 0 0 0 0 0 0 0 0 0 0 -0 -0 -0
0 0 0 0 0 0 0 0 0 0 0 0 0 0 0 0 0 0 0 0 0 0 0 0 0 0 0 0 0 0 0 0 0 0 -0 -0 -0 -0
0 0 0 0 0 0 0 0 0 0 0 0 0 0 0 0 0 0 0 0 0 0 0 0 0 0 0 0 0 -0 0 0 0 0 -0 0 0 -0
0 0 0 0 0 0 0 0 0 0 0 0 0 0 0 0 0 0 0 0 0 0 0 0 0 0 0 0 0 -0 -0 0 0 0 0 0 0 0
0 0 0 0 0 0 0 0 0 0 0 0 0 0 0 0 0 0 0 0 0 0 0 0 0 0 0 0 0 0 0 -0 0 0 0 0 0 0
0 0 0 0 0 0 0 0 0 0 0 0 0 0 0 0 0 0 0 0 0 0 0 0 0 0 0 0 0 0 0 0 0 0 0 0 0 0
0 0 0 0 0 0 0 0 0 0 0 0 0 0 0 0 0 0 0 0 0 0 0 0 0 0 0 0 0 0 0 0 0 0 0 0 0 0
Wind_Speed_500mb
15 12 16 20 13 10 6 3 9 8 8 20 15 12 24 28 27 28 19 14 15 18 15 14 16 12 12 14 13 14 10 16 20 20 16 16 16 16
18 19 21 18 18 21 15 8 12 13 7 13 4 20 18 23 26 29 23 19 15 18 20 18 18 18 16 17 17 18 15 19 19 20 21 20 19 18
26 31 31 27 25 22 24 27 18 15 17 10 9 4 17 28 22 25 32 28 25 27 25 24 23 22 21 20 22 22 18 19 20 22 23 22 22 22
36 28 26 25 34 34 32 22 22 23 22 23 28 19 21 23 21 31 27 32 36 32 27 28 27 25 25 25 26 25 21 24 23 25 25 25 25 23
40 34 31 25 24 28 29 29 27 22 27 26 21 23 20 20 21 19 30 30 31 31 31 29 29 29 29 29 30 28 27 26 28 28 29 28 28 28
32 37 34 33 31 32 30 28 28 29 31 31 30 30 28 28 34 36 32 41 38 39 36 31 33 33 34 34 33 32 33 32 33 35 34 33 33 29
34 35 38 36 38 37 39 36 34 31 30 34 38 30 27 24 32 34 37 41 46 42 42 36 31 34 38 38 36 36 36 35 38 40 38 39 37 35
43 40 40 42 45 42 37 38 43 41 41 40 38 39 39 37 32 38 45 49 51 50 42 42 40 36 35 37 36 36 39 39 43 45 45 44 41 42
47 48 46 43 41 45 47 41 45 44 47 50 56 58 54 49 42 44 39 49 55 45 44 45 48 47 41 38 36 39 42 45 48 48 44 44 45 45
45 51 53 53 48 46 46 51 53 49 46 47 50 53 50 46 46 52 51 51 53 52 50 50 48 50 45 42 42 45 47 51 54 46 48 45 45 48
39 42 44 51 52 53 57 57 58 62 58 57 53 52 50 47 44 43 46 52 59 62 56 53 55 51 50 51 52 53 49 51 51 52 46 43 55 54
35 34 34 38 44 49 51 53 56 56 55 57 57 51 47 49 50 51 50 56 59 61 65 59 62 56 52 54 59 58 56 58 51 41 39 43 51 49
40 39 40 39 42 46 40 47 53 52 51 56 57 55 51 52 55 56 53 50 55 65 74 65 59 67 62 41 52 53 56 45 37 36 42 49 46 52
31 38 42 40 40 38 42 46 49 47 44 45 48 52 52 51 50 46 46 45 46 55 51 47 50 48 54 60 51 54 41 36 37 52 53 49 50 42
30 31 34 35 38 39 37 36 37 38 39 41 42 43 46 50 46 45 45 52 47 48 43 43 38 41 48 64 61 51 52 51 56 46 50 48 39 43
32 36 41 39 37 37 37 36 32 33 35 39 43 45 47 49 49 45 43 43 41 43 38 28 29 43 44 36 30 48 59 58 56 56 46 40 41 37
48 52 54 53 48 38 29 29 34 37 37 38 39 45 47 47 43 38 32 32 33 27 25 26 26 22 15 10 38 52 72 52 60 53 46 43 37 31
58 60 60 55 50 42 25 33 36 38 40 41 48 47 39 32 29 29 28 28 27 25 21 21 25 30 30 24 25 67 64 47 51 47 43 40 34 27
47 48 48 44 28 17 27 33 35 36 42 44 38 31 24 25 26 24 22 20 20 21 21 24 29 35 51 49 61 58 46 42 47 47 37 32 25 21
25 24 23 18 18 21 28 34 38 41 38 32 29 24 22 19 17 18 21 24 29 31 34 35 42 52 54 65 64 57 43 29 39 37 31 26 25 24
21 19 19 19 24 31 33 33 34 30 26 22 18 16 15 16 20 23 26 33 38 46 49 49 47 38 33 39 43 45 40 33 20 27 36 32 25 21
20 23 27 28 26 22 23 22 20 18 18 16 15 15 15 19 22 27 32 45 49 49 46 47 39 25 14 21 32 41 39 30 30 30 25 20 24 18
18 20 20 19 18 19 18 16 15 14 11 10 12 17 20 22 27 38 48 54 50 44 40 36 32 22 18 17 29 35 39 37 35 32 29 25 20 15
Wind_Direction_500mb
269 271 236 231 241 271 345 347 324 221 225 191 209 217 229 228 239 256 270 281 275 258 264 269 263 267 253 242 227 210 247 222 222 232 259 268 268 282
260 242 252 245 257 264 269 317 310 305 259 119 201 241 261 259 228 247 261 284 269 262 258 263 257 259 259 246 233 224 264 223 222 237 261 266 271 274
249 253 248 256 257 258 278 271 289 301 288 260 236 264 248 219 231 245 253 271 260 267 262 258 251 255 258 249 239 235 256 229 226 245 261 259 260 258
257 251 251 252 257 267 277 267 268 280 288 297 244 250 288 231 250 247 245 255 261 262 247 254 250 251 254 251 243 243 243 236 241 256 258 257 257 256
257 259 255 250 260 275 274 271 261 261 274 272 264 257 265 240 234 251 257 256 258 257 253 256 254 250 250 248 243 244 242 244 254 252 252 251 249 253
257 253 254 250 252 263 272 271 274 271 258 259 265 270 266 256 242 261 259 265 271 267 266 261 256 252 251 247 244 244 245 243 247 248 248 244 238 240
271 259 256 261 262 258 266 265 277 271 266 256 268 267 258 248 258 254 250 259 273 266 266 268 267 254 247 247 242 249 248 247 252 251 247 240 234 222
275 276 272 261 253 262 264 270 268 274 276 274 275 272 270 266 268 265 266 249 254 270 262 270 267 259 251 249 249 252 253 250 253 254 240 231 218 200
275 275 273 264 263 264 263 265 267 268 268 271 271 271 274 274 274 267 265 259 266 279 272 272 262 255 254 253 246 253 254 251 246 233 227 215 201 190
277 275 272 271 270 269 265 266 271 270 266 266 268 275 276 277 270 264 269 271 270 268 264 266 271 259 258 258 251 248 248 245 238 225 210 203 199 173
280 277 272 269 271 274 274 273 269 270 275 276 275 268 268 270 271 266 255 253 259 264 264 265 262 257 247 245 244 244 244 239 230 212 215 216 193 168
288 288 280 274 266 261 261 265 267 267 270 271 272 274 270 271 271 268 266 261 259 259 262 259 252 246 232 237 237 239 234 228 219 227 226 210 173 164
285 285 281 284 282 271 268 266 268 272 273 274 274 270 269 272 276 276 274 270 264 261 260 255 252 238 231 228 229 229 224 213 218 204 185 176 173 170
299 290 282 281 284 282 276 275 275 273 275 272 272 273 275 276 273 276 280 285 285 278 272 266 262 260 248 235 224 220 208 212 202 177 176 174 172 177
296 300 297 291 286 286 287 286 282 281 279 277 275 277 275 275 278 277 282 283 276 279 276 262 256 263 258 246 239 201 185 188 177 176 173 178 180 176
293 297 298 298 293 290 287 283 287 284 283 276 273 274 274 276 277 278 277 282 282 280 267 268 261 247 244 242 233 199 186 172 176 176 177 175 174 181
290 292 294 296 296 290 277 278 274 280 284 279 279 282 278 278 280 281 281 273 265 260 239 228 221 222 205 241 193 193 173 173 173 174 177 175 179 181
288 289 289 291 290 287 260 262 269 276 278 279 288 289 285 283 282 273 259 256 254 232 214 202 199 179 157 153 200 171 169 179 176 177 179 184 186 192
290 290 288 290 287 252 262 264 272 276 283 290 290 284 276 277 269 258 246 233 198 190 176 178 174 172 151 142 163 171 167 171 178 183 185 189 197 194
315 309 300 281 282 276 275 276 279 285 285 281 279 271 265 254 239 228 198 185 176 167 156 153 156 158 158 153 159 171 173 167 177 180 182 197 188 191
299 301 295 287 284 286 283 281 279 279 277 271 270 254 239 227 204 189 180 177 168 158 148 147 146 146 156 162 164 169 178 181 190 194 180 185 199 211
289 282 284 286 285 282 287 283 277 271 263 258 246 226 207 185 180 170 170 169 158 141 136 143 153 150 155 177 181 177 176 177 172 178 197 217 205 214
295 293 291 292 295 290 281 273 261 245 221 203 187 164 153 151 147 146 147 143 137 139 147 153 150 146 141 143 168 167 170 174 177 183 195 205 222 235
Wind_Speed_850mb
15 12 16 20 13 10 6 3 9 8 8 20 15 12 24 28 27 28 19 14 15 18 15 14 16 12 12 14 13 14 10 16 20 20 16 16 16 16
18 19 21 18 18 21 15 8 12 13 7 13 4 20 18 23 26 29 23 19 15 18 20 18 18 18 16 17 17 18 15 19 19 20 21 20 19 18
26 31 31 27 25 22 24 27 18 15 17 10 9 4 17 28 22 25 32 28 25 27 25 24 23 22 21 20 22 22 18 19 20 22 23 22 22 22
36 28 26 25 34 34 32 22 22 23 22 23 28 19 21 23 21 31 27 32 36 32 27 28 27 25 25 25 26 25 21 24 23 25 25 25 25 23
40 34 31 25 24 28 29 29 27 22 27 26 21 23 20 20 21 19 30 30 31 31 31 29 29 29 29 29 30 28 27 26 28 28 29 28 28 28
32 37 34 33 31 32 30 28 28 29 31 31 30 30 28 28 34 36 32 41 38 39 36 31 33 33 34 34 33 32 33 32 33 35 34 33 33 29
34 35 38 36 38 37 39 36 34 31 30 34 38 30 27 24 32 34 37 41 46 42 42 36 31 34 38 38 36 36 36 35 38 40 38 39 37 35
43 40 40 42 45 42 37 38 43 41 41 40 38 39 39 37 32 38 45 49 51 50 42 42 40 36 35 37 36 36 39 39 43 45 45 44 41 42
47 48 46 43 41 45 47 41 45 44 47 50 56 58 54 49 42 44 39 49 55 45 44 45 48 47 41 38 36 39 42 45 48 48 44 44 45 45
45 51 53 53 48 46 46 51 53 49 46 47 50 53 50 46 46 52 51 51 53 52 50 50 48 50 45 42 42 45 47 51 54 46 48 45 45 48
39 42 44 51 52 53 57 57 58 62 58 57 53 52 50 47 44 43 46 52 59 62 56 53 55 51 50 51 52 53 49 51 51 52 46 43 55 54
35 34 34 38 44 49 51 53 56 56 55 57 57 51 47 49 50 51 50 56 59 61 65 59 62 56 52 54 59 58 56 58 51 41 39 43 51 49
40 39 40 39 42 46 40 47 53 52 51 56 57 55 51 52 55 56 53 50 55 65 74 65 59 67 62 41 52 53 56 45 37 36 42 49 46 52
31 38 42 40 40 38 42 46 49 47 44 45 48 52 52 51 50 46 46 45 46 55 51 47 50 48 54 60 51 54 41 36 37 52 53 49 50 42
30 31 34 35 38 39 37 36 37 38 39 41 42 43 46 50 46 45 45 52 47 48 43 43 38 41 48 64 61 51 52 51 56 46 50 48 39 43
32 36 41 39 37 37 37 36 32 33 35 39 43 45 47 49 49 45 43 43 41 43 38 28 29 43 44 36 30 48 59 58 56 56 46 40 41 37
48 52 54 53 48 38 29 29 34 37 37 38 39 45 47 47 43 38 32 32 33 27 25 26 26 22 15 10 38 52 72 52 60 53 46 43 37 31
58 60 60 55 50 42 25 33 36 38 40 41 48 47 39 32 29 29 28 28 27 25 21 21 25 30 30 24 25 67 64 47 51 47 43 40 34 27
47 48 48 44 28 17 27 33 35 36 42 44 38 31 24 25 26 24 22 20 20 21 21 24 29 35 51 49 61 58 46 42 47 47 37 32 25 21
25 24 23 18 18 21 28 34 38 41 38 32 29 24 22 19 17 18 21 24 29 31 34 35 42 52 54 65 64 57 43 29 39 37 31 26 25 24
21 19 19 19 24 31 33 33 34 30 26 22 18 16 15 16 20 23 26 33 38 46 49 49 47 38 33 39 43 45 40 33 20 27 36 32 25 21
20 23 27 28 26 22 23 22 20 18 18 16 15 15 15 19 22 27 32 45 49 49 46 47 39 25 14 21 32 41 39 30 30 30 25 20 24 18
18 20 20 19 18 19 18 16 15 14 11 10 12 17 20 22 27 38 48 54 50 44 40 36 32 22 18 17 29 35 39 37 35 32 29 25 20 15
Wind_Direction_850mb
269 271 236 231 241 271 345 347 324 221 225 191 209 217 229 228 239 256 270 281 275 258 264 269 263 267 253 242 227 210 247 222 222 232 259 268 268 282
260 242 252 245 257 264 269 317 310 305 259 119 201 241 261 259 228 247 261 284 269 262 258 263 257 259 259 246 233 224 264 223 222 237 261 266 271 274
249 253 248 256 257 258 278 271 289 301 288 260 236 264 248 219 231 245 253 271 260 267 262 258 251 255 258 249 239 235 256 229 226 245 261 259 260 258
257 251 251 252 257 267 277 267 268 280 288 297 244 250 288 231 250 247 245 255 261 262 247 254 250 251 254 251 243 243 243 236 241 256 258 257 257 256
257 259 255 250 260 275 274 271 261 261 274 272 264 257 265 240 234 251 257 256 258 257 253 256 254 250 250 248 243 244 242 244 254 252 252 251 249 253
257 253 254 250 252 263 272 271 274 271 258 259 265 270 266 256 242 261 259 265 271 267 266 261 256 252 251 247 244 244 245 243 247 248 248 244 238 240
271 259 256 261 262 258 266 265 277 271 266 256 268 267 258 248 258 254 250 259 273 266 266 268 267 254 247 247 242 249 248 247 252 251 247 240 234 222
275 276 272 261 253 262 264 270 268 274 276 274 275 272 270 266 268 265 266 249 254 270 262 270 267 259 251 249 249 252 253 250 253 254 240 231 218 200
275 275 273 264 263 264 263 265 267 268 268 271 271 271 274 274 274 267 265 259 266 279 272 272 262 255 254 253 246 253 254 251 246 233 227 215 201 190
277 275 272 271 270 269 265 266 271 270 266 266 268 275 276 277 270 264 269 271 270 268 264 266 271 259 258 258 251 248 248 245 238 225 210 203 199 173
280 277 272 269 271 274 274 273 269 270 275 276 275 268 268 270 271 266 255 253 259 264 264 265 262 257 247 245 244 244 244 239 230 212 215 216 193 168
288 288 280 274 266 261 261 265 267 267 270 271 272 274 270 271 271 268 266 261 259 259 262 259 252 246 232 237 237 239 234 228 219 227 226 210 173 164
285 285 281 284 282 271 268 266 268 272 273 274 274 270 269 272 276 276 274 270 264 261 260 255 252 238 231 228 229 229 224 213 218 204 185 176 173 170
299 290 282 281 284 282 276 275 275 273 275 272 272 273 275 276 273 276 280 285 285 278 272 266 262 260 248 235 224 220 208 212 202 177 176 174 172 177
296 300 297 291 286 286 287 286 282 281 279 277 275 277 275 275 278 277 282 283 276 279 276 262 256 263 258 246 239 201 185 188 177 176 173 178 180 176
293 297 298 298 293 290 287 283 287 284 283 276 273 274 274 276 277 278 277 282 282 280 267 268 261 247 244 242 233 199 186 172 176 176 177 175 174 181
290 292 294 296 296 290 277 278 274 280 284 279 279 282 278 278 280 281 281 273 265 260 239 228 221 222 205 241 193 193 173 173 173 174 177 175 179 181
288 289 289 291 290 287 260 262 269 276 278 279 288 289 285 283 282 273 259 256 254 232 214 202 199 179 157 153 200 171 169 179 176 177 179 184 186 192
290 290 288 290 287 252 262 264 272 276 283 290 290 284 276 277 269 258 246 233 198 190 176 178 174 172 151 142 163 171 167 171 178 183 185 189 197 194
315 309 300 281 282 276 275 276 279 285 285 281 279 271 265 254 239 228 198 185 176 167 156 153 156 158 158 153 159 171 173 167 177 180 182 197 188 191
299 301 295 287 284 286 283 281 279 279 277 271 270 254 239 227 204 189 180 177 168 158 148 147 146 146 156 162 164 169 178 181 190 194 180 185 199 211
289 282 284 286 285 282 287 283 277 271 263 258 246 226 207 185 180 170 170 169 158 141 136 143 153 150 155 177 181 177 176 177 172 178 197 217 205 214
295 293 291 292 295 290 281 273 261 245 221 203 187 164 153 151 147 146 147 143 137 139 147 153 150 146 141 143 168 167 170 174 177 183 195 205 222 235